SAA317 FAPE-FAKM

Flight info

Callsign SAA317
Flight time N/A
Altitude 37000
Route TIBIP DCT EGTIM DCT PVV
Aircraft A321/M-SDE3FGHIRWY/LB1

Departure

Time 2026-05-06 16:45
Airport Chief Dawid Stuurman International Airport (FAPE)

Arrival

Time N/A
Airport Kimberley Airport (FAKM)
Time Latitude Longitude Altitude Speed Heading
2026-05-06 16:18 -33.98435 25.61256 235 ft 0 kts 328°
2026-05-06 16:37 -33.98438 25.61258 235 ft 2 kts 325°
2026-05-06 16:37 -33.98450 25.61270 235 ft 2 kts 324°
2026-05-06 16:38 -33.98463 25.61280 235 ft 2 kts 326°
2026-05-06 16:38 -33.98474 25.61289 235 ft 1 kts 325°
2026-05-06 16:38 -33.98481 25.61293 235 ft 0 kts 12°
2026-05-06 16:38 -33.98486 25.61290 235 ft 0 kts 59°
2026-05-06 16:39 -33.98489 25.61283 235 ft 0 kts 57°
2026-05-06 16:40 -33.98489 25.61284 235 ft 0 kts 57°
2026-05-06 16:40 -33.98486 25.61290 235 ft 1 kts 58°
2026-05-06 16:41 -33.98478 25.61304 235 ft 2 kts 58°
2026-05-06 16:41 -33.98467 25.61327 235 ft 3 kts 59°
2026-05-06 16:41 -33.98452 25.61358 235 ft 4 kts 64°
2026-05-06 16:41 -33.98439 25.61398 235 ft 5 kts 68°
2026-05-06 16:42 -33.98421 25.61444 235 ft 6 kts 64°
2026-05-06 16:42 -33.98399 25.61498 235 ft 7 kts 61°
2026-05-06 16:42 -33.98369 25.61556 235 ft 8 kts 56°
2026-05-06 16:42 -33.98333 25.61621 235 ft 9 kts 57°
2026-05-06 16:43 -33.98294 25.61695 235 ft 10 kts 58°
2026-05-06 16:43 -33.98267 25.61749 235 ft 8 kts 58°
2026-05-06 16:43 -33.98239 25.61812 235 ft 8 kts 68°
2026-05-06 16:43 -33.98249 25.61881 235 ft 8 kts 125°
2026-05-06 16:44 -33.98295 25.61929 235 ft 9 kts 145°
2026-05-06 16:44 -33.98348 25.61957 235 ft 7 kts 180°
2026-05-06 16:44 -33.98387 25.61916 235 ft 8 kts 230°
2026-05-06 16:44 -33.98425 25.61859 235 ft 9 kts 236°
2026-05-06 16:45 -33.98484 25.61748 235 ft 43 kts 236°
2026-05-06 16:45 -33.98814 25.61114 235 ft 131 kts 236°
2026-05-06 16:45 -33.99441 25.59928 342 ft 191 kts 236°
2026-05-06 16:45 -34.00166 25.58570 1160 ft 200 kts 238°
2026-05-06 16:46 -34.00834 25.57048 2030 ft 212 kts 249°
2026-05-06 16:46 -34.01148 25.55381 2793 ft 205 kts 268°
2026-05-06 16:46 -34.01038 25.53672 3411 ft 206 kts 288°
2026-05-06 16:46 -34.00390 25.52123 3819 ft 215 kts 318°
2026-05-06 16:47 -33.99089 25.51256 4292 ft 214 kts
2026-05-06 16:47 -33.97709 25.51648 4807 ft 208 kts 40°
2026-05-06 16:47 -33.96679 25.52874 5332 ft 213 kts 58°
2026-05-06 16:47 -33.95997 25.54504 5801 ft 225 kts 74°
2026-05-06 16:48 -33.95475 25.56369 6249 ft 242 kts 75°
2026-05-06 16:48 -33.94922 25.58327 6659 ft 259 kts 75°
2026-05-06 16:48 -33.94334 25.60427 7205 ft 270 kts 75°
2026-05-06 16:48 -33.93708 25.62647 7950 ft 274 kts 75°
2026-05-06 16:49 -33.93063 25.64953 8716 ft 278 kts 75°
2026-05-06 16:49 -33.92432 25.67207 9449 ft 281 kts 75°
2026-05-06 16:49 -33.91797 25.69465 10139 ft 285 kts 75°
2026-05-06 16:49 -33.91149 25.71784 10504 ft 301 kts 75°
2026-05-06 16:50 -33.90463 25.74235 10901 ft 314 kts 75°
2026-05-06 16:50 -33.89653 25.76707 11462 ft 324 kts 63°
2026-05-06 16:50 -33.88121 25.78741 12054 ft 337 kts 38°
2026-05-06 16:50 -33.85960 25.79849 12684 ft 346 kts 12°
2026-05-06 16:51 -33.83535 25.79828 13309 ft 350 kts 353°
2026-05-06 16:51 -33.81089 25.79414 13890 ft 355 kts 352°
2026-05-06 16:51 -33.78622 25.78977 14452 ft 359 kts 352°
2026-05-06 16:51 -33.76148 25.78548 15016 ft 363 kts 352°
2026-05-06 16:52 -33.73610 25.78123 15558 ft 368 kts 352°
2026-05-06 16:52 -33.71070 25.77708 16101 ft 372 kts 352°
2026-05-06 16:52 -33.68457 25.77288 16643 ft 376 kts 352°
2026-05-06 16:52 -33.65876 25.76877 17154 ft 380 kts 352°
2026-05-06 16:53 -33.63197 25.76452 17664 ft 384 kts 352°
2026-05-06 16:53 -33.60547 25.76034 18147 ft 388 kts 352°
2026-05-06 16:53 -33.57841 25.75604 18639 ft 392 kts 352°
2026-05-06 16:53 -33.55127 25.75172 19137 ft 395 kts 352°
2026-05-06 16:54 -33.52390 25.74740 19619 ft 398 kts 352°
2026-05-06 16:54 -33.49620 25.74303 20119 ft 401 kts 352°
2026-05-06 16:54 -33.46849 25.73865 20611 ft 404 kts 352°
2026-05-06 16:54 -33.44059 25.73426 21073 ft 407 kts 352°
2026-05-06 16:55 -33.41239 25.72983 21518 ft 410 kts 352°
2026-05-06 16:55 -33.38387 25.72532 21968 ft 414 kts 352°
2026-05-06 16:55 -33.35518 25.72081 22428 ft 416 kts 352°
2026-05-06 16:55 -33.32631 25.71629 22870 ft 419 kts 352°
2026-05-06 16:56 -33.29731 25.71175 23337 ft 421 kts 352°
2026-05-06 16:56 -33.26816 25.70717 23740 ft 424 kts 352°
2026-05-06 16:56 -33.23894 25.70260 24119 ft 427 kts 352°
2026-05-06 16:56 -33.20932 25.69795 24490 ft 431 kts 352°
2026-05-06 16:57 -33.17937 25.69284 24887 ft 433 kts 349°
2026-05-06 16:57 -33.14983 25.68567 25288 ft 434 kts 345°
2026-05-06 16:57 -33.12051 25.67607 25685 ft 436 kts 341°
2026-05-06 16:57 -33.09150 25.66542 26040 ft 439 kts 340°
2026-05-06 16:58 -33.06211 25.65445 26347 ft 443 kts 340°
2026-05-06 16:58 -33.03228 25.64337 26667 ft 447 kts 340°
2026-05-06 16:58 -33.00261 25.63238 27017 ft 449 kts 341°
2026-05-06 16:58 -32.97274 25.62139 27370 ft 452 kts 341°
2026-05-06 16:59 -32.94246 25.61027 27695 ft 455 kts 340°
2026-05-06 16:59 -32.91224 25.59920 28003 ft 458 kts 341°
2026-05-06 16:59 -32.88147 25.58796 28317 ft 460 kts 341°
2026-05-06 16:59 -32.85067 25.57678 28606 ft 462 kts 341°
2026-05-06 17:00 -32.81981 25.56557 28944 ft 464 kts 341°
2026-05-06 17:00 -32.79155 25.55529 29178 ft 467 kts 340°
2026-05-06 17:00 -32.76044 25.54400 29411 ft 470 kts 340°
2026-05-06 17:00 -32.72867 25.53243 29679 ft 473 kts 340°
2026-05-06 17:01 -32.69727 25.52101 29937 ft 474 kts 340°
2026-05-06 17:01 -32.66577 25.50955 30198 ft 475 kts 340°
2026-05-06 17:01 -32.63411 25.49805 30430 ft 476 kts 340°
2026-05-06 17:01 -32.60207 25.48639 30675 ft 476 kts 340°
2026-05-06 17:02 -32.57035 25.47487 30940 ft 476 kts 340°
2026-05-06 17:02 -32.53882 25.46345 31236 ft 476 kts 341°
2026-05-06 17:02 -32.50670 25.45183 31425 ft 477 kts 340°
2026-05-06 17:02 -32.47474 25.44028 31665 ft 477 kts 340°
2026-05-06 17:03 -32.44319 25.42887 31956 ft 475 kts 340°
2026-05-06 17:03 -32.41172 25.41750 32297 ft 471 kts 341°
2026-05-06 17:03 -32.38010 25.40608 32653 ft 466 kts 340°
2026-05-06 17:03 -32.34897 25.39486 33046 ft 462 kts 340°
2026-05-06 17:04 -32.31802 25.38371 33403 ft 460 kts 340°
2026-05-06 17:04 -32.28744 25.37270 33734 ft 458 kts 340°
2026-05-06 17:04 -32.25637 25.36150 34049 ft 456 kts 340°
2026-05-06 17:04 -32.22592 25.35055 34358 ft 455 kts 340°
2026-05-06 17:05 -32.19559 25.33955 34646 ft 453 kts 340°
2026-05-06 17:05 -32.16552 25.32858 34900 ft 453 kts 340°
2026-05-06 17:05 -32.13524 25.31755 35160 ft 451 kts 340°
2026-05-06 17:05 -32.10537 25.30675 35378 ft 451 kts 340°
2026-05-06 17:06 -32.07488 25.29575 35555 ft 451 kts 340°
2026-05-06 17:06 -32.04475 25.28492 35692 ft 452 kts 340°
2026-05-06 17:06 -32.01466 25.27412 35823 ft 453 kts 340°
2026-05-06 17:06 -31.98460 25.26334 35974 ft 453 kts 340°
2026-05-06 17:07 -31.95388 25.25235 36125 ft 453 kts 340°
2026-05-06 17:07 -31.92384 25.24160 36248 ft 454 kts 340°
2026-05-06 17:07 -31.89338 25.23072 36334 ft 455 kts 340°
2026-05-06 17:07 -31.86279 25.21984 36440 ft 455 kts 340°
2026-05-06 17:08 -31.83220 25.20898 36520 ft 456 kts 340°
2026-05-06 17:08 -31.77164 25.18747 36731 ft 456 kts 340°
2026-05-06 17:09 -31.71018 25.16563 36772 ft 457 kts 339°
2026-05-06 17:09 -31.64959 25.14411 36772 ft 456 kts 339°
2026-05-06 17:10 -31.58865 25.12247 36782 ft 455 kts 339°
2026-05-06 17:10 -31.52760 25.10085 36785 ft 455 kts 339°
2026-05-06 17:11 -31.46658 25.07925 36785 ft 454 kts 339°
2026-05-06 17:11 -31.40577 25.05776 36793 ft 454 kts 339°
2026-05-06 17:12 -31.34506 25.03630 36787 ft 455 kts 339°
2026-05-06 17:12 -31.28439 25.01492 36789 ft 454 kts 339°
2026-05-06 17:13 -31.22362 24.99352 36779 ft 454 kts 339°
2026-05-06 17:13 -31.16294 24.97217 36792 ft 453 kts 339°
2026-05-06 17:14 -31.10216 24.95085 36797 ft 453 kts 339°
2026-05-06 17:14 -31.04212 24.92979 36792 ft 452 kts 339°
2026-05-06 17:15 -30.98163 24.90862 36825 ft 451 kts 338°
2026-05-06 17:15 -30.92102 24.88743 36817 ft 451 kts 339°
2026-05-06 17:16 -30.86082 24.86645 36846 ft 451 kts 338°
2026-05-06 17:16 -30.80022 24.84540 36838 ft 453 kts 338°
2026-05-06 17:17 -30.73938 24.82425 36851 ft 452 kts 338°
2026-05-06 17:17 -30.67897 24.80326 36860 ft 451 kts 338°
2026-05-06 17:18 -30.61879 24.78235 36867 ft 450 kts 338°
2026-05-06 17:18 -30.55833 24.76229 36855 ft 453 kts 344°
2026-05-06 17:19 -30.49420 24.75756 36587 ft 461 kts 355°
2026-05-06 17:19 -30.46187 24.75789 35828 ft 469 kts 355°
2026-05-06 17:19 -30.42878 24.75834 34916 ft 479 kts 355°
2026-05-06 17:19 -30.39536 24.75874 34030 ft 485 kts 355°
2026-05-06 17:20 -30.36133 24.75908 33219 ft 490 kts 355°
2026-05-06 17:20 -30.32732 24.75934 32506 ft 494 kts 355°
2026-05-06 17:20 -30.29247 24.75956 31777 ft 498 kts 355°
2026-05-06 17:20 -30.25769 24.75973 31151 ft 498 kts 355°
2026-05-06 17:21 -30.22311 24.75992 30576 ft 496 kts 356°
2026-05-06 17:21 -30.18853 24.76010 29949 ft 494 kts 356°
2026-05-06 17:21 -30.15453 24.76032 29284 ft 492 kts 356°
2026-05-06 17:21 -30.12001 24.76055 28701 ft 488 kts 356°
2026-05-06 17:22 -30.08635 24.76077 28161 ft 482 kts 356°
2026-05-06 17:22 -30.05259 24.76097 27611 ft 477 kts 355°
2026-05-06 17:22 -30.01968 24.76116 27058 ft 472 kts 355°
2026-05-06 17:22 -29.98656 24.76133 26482 ft 467 kts 355°
2026-05-06 17:23 -29.95438 24.76150 25937 ft 462 kts 355°
2026-05-06 17:23 -29.92227 24.76169 25340 ft 456 kts 354°
2026-05-06 17:23 -29.89033 24.76186 24570 ft 450 kts 354°
2026-05-06 17:23 -29.85916 24.76204 23726 ft 444 kts 354°
2026-05-06 17:24 -29.82880 24.76222 23015 ft 433 kts 354°
2026-05-06 17:24 -29.79908 24.76240 22440 ft 416 kts 353°
2026-05-06 17:24 -29.77013 24.76253 21700 ft 406 kts 353°
2026-05-06 17:24 -29.74213 24.76263 20937 ft 399 kts 354°
2026-05-06 17:25 -29.71462 24.76273 20152 ft 392 kts 353°
2026-05-06 17:25 -29.68753 24.76282 19368 ft 386 kts 353°
2026-05-06 17:25 -29.66061 24.76293 18599 ft 380 kts 353°
2026-05-06 17:25 -29.63414 24.76305 17881 ft 374 kts 354°
2026-05-06 17:26 -29.60821 24.76319 17223 ft 366 kts 354°
2026-05-06 17:26 -29.58261 24.76332 16568 ft 359 kts 354°
2026-05-06 17:26 -29.55772 24.76346 15995 ft 349 kts 353°
2026-05-06 17:26 -29.53349 24.76360 15388 ft 342 kts 354°
2026-05-06 17:27 -29.50993 24.76369 14705 ft 337 kts 354°
2026-05-06 17:27 -29.48635 24.76377 14003 ft 333 kts 354°
2026-05-06 17:27 -29.46308 24.76387 13333 ft 328 kts 354°
2026-05-06 17:27 -29.44016 24.76398 12881 ft 325 kts 355°
2026-05-06 17:28 -29.41766 24.76410 12465 ft 325 kts 354°
2026-05-06 17:28 -29.39511 24.76421 12074 ft 322 kts 354°
2026-05-06 17:28 -29.37269 24.76432 11689 ft 320 kts 354°
2026-05-06 17:28 -29.35027 24.76446 11303 ft 319 kts 354°
2026-05-06 17:29 -29.32814 24.76459 11012 ft 316 kts 354°
2026-05-06 17:29 -29.30605 24.76470 10643 ft 314 kts 354°
2026-05-06 17:29 -29.28414 24.76479 10233 ft 312 kts 354°
2026-05-06 17:29 -29.26264 24.76491 10051 ft 305 kts 354°
2026-05-06 17:30 -29.24170 24.76502 9953 ft 299 kts 354°
2026-05-06 17:30 -29.22104 24.76514 9701 ft 295 kts 354°
2026-05-06 17:30 -29.20013 24.76523 8996 ft 298 kts 353°
2026-05-06 17:30 -29.17917 24.76533 8593 ft 301 kts 352°
2026-05-06 17:31 -29.15838 24.76541 8470 ft 300 kts 353°
2026-05-06 17:31 -29.13746 24.76550 8464 ft 300 kts 353°
2026-05-06 17:31 -29.11635 24.76558 8461 ft 300 kts 353°
2026-05-06 17:31 -29.09548 24.76567 8460 ft 300 kts 353°
2026-05-06 17:32 -29.07444 24.76571 8461 ft 300 kts 353°
2026-05-06 17:32 -29.05366 24.76565 8435 ft 296 kts 353°
2026-05-06 17:32 -29.03308 24.76561 8178 ft 291 kts 352°
2026-05-06 17:32 -29.01284 24.76556 7883 ft 287 kts 352°
2026-05-06 17:33 -28.99297 24.76551 7556 ft 282 kts 352°
2026-05-06 17:33 -28.97348 24.76547 7225 ft 274 kts 352°
2026-05-06 17:33 -28.95483 24.76544 6919 ft 265 kts 351°
2026-05-06 17:33 -28.93645 24.76542 6609 ft 257 kts 351°
2026-05-06 17:34 -28.91891 24.76539 6176 ft 246 kts 351°
2026-05-06 17:34 -28.90232 24.76531 5679 ft 235 kts 353°
2026-05-06 17:34 -28.88604 24.76522 5330 ft 224 kts 353°
2026-05-06 17:34 -28.87088 24.76521 5024 ft 210 kts 354°
2026-05-06 17:35 -28.85673 24.76518 4735 ft 196 kts 354°
2026-05-06 17:35 -28.84339 24.76516 4422 ft 184 kts 355°
2026-05-06 17:35 -28.83108 24.76512 4158 ft 171 kts 355°
2026-05-06 17:36 -28.81036 24.76510 3959 ft 97 kts 339°